カタログに戻る

MIDAS 3 DEB

LostPO
NORAD 25793·DEBRIS·🇺🇸 United States

打ち上げ Jul 12, 1961 から Vandenberg Space Force Base

Loading…

次のパス (今後24時間)

TLE

古いSource: Space-Track

元期: May 18, 2026, 15:17 UTC

1 25793U 61018F   26138.63704879  .00000017  00000-0  55468-2 0  9994
2 25793  91.1529 217.9790 0126187 112.4845 248.9444  8.93209216399310

AllMySatでMIDAS 3 DEBをリアルタイム追跡

Download on the App Store